{"data":{"norad_id":59422,"intl_designator":"2024-065B","name":"STARLINK-11090 [DTC]","alt_names":[],"object_type":"PAYLOAD","status":"ACTIVE","operator":null,"country":"US","launch_date":"2024-04-07","launch_site_code":"AFWTR","launch_vehicle":null,"mission":null,"orbit_class":"UNKNOWN","rcs_meters":null,"size_class":null,"mass_kg":null,"dimensions":null,"purposes":["comms"],"wikipedia_slug":null,"has_3d_model":false,"image_url":null,"decayed_at":null,"tle_current":{"epoch":"2026-09-21T03:43:21.476352Z","epoch_age_seconds":108567,"freshness":"FRESH","line1":"1 59422U 24065B   26264.15510968 -.00000772  00000+0 -15147-5 0  9994","line2":"2 59422  53.1593 210.2742 0000930  90.1276 269.9848 15.69710574142238","mean_motion":15.69710574,"eccentricity":9.3e-5,"inclination_deg":53.1593,"raan_deg":210.2742,"arg_perigee_deg":90.1276,"mean_anomaly_deg":269.9848,"bstar":-1.5147e-6,"rev_number":14223,"period_min":91.736656671079,"perigee_km":359.09848667597,"apogee_km":360.35172902803,"semimajor_km":6737.862107852,"source":"CELESTRAK","updated_at":"2026-09-22T09:00:48.919770Z"}}}